Terminal Aerodrome Forecast
Issued by NWS

Home | Current Version | Previous Version | Text Only | Print | Product List | Glossary On
Versions: 1 2 3 4 5 6 7 8 9 10 11 12 13 14 15
000
FTUS43 KUNR 050520
TAFGCC
TAF
KGCC 050520Z 0506/0606 16020G30KT P6SM BKN200
      TEMPO 0513/0517 BKN025=

USA.gov is the U.S. government's official web portal to all federal, state and local government web resources and services.